OneWeb SL0113

operational
NORAD ID: 48050 Int'l Des: 2021-025 Owner: ONEWEBN Country: UK Constellation: oneweb
LEOCIRCULARPOLARONEWEB_TYPE

Über OneWeb SL0113

Beschreibung wird geladen...

Live-Position

3D-Globus wird geladen...

Nächste Überflüge

Höhenverlauf

Altitude vs Time

uPlot chart will show altitude changes over time

Zweizeiliger Elementsatz

1 48050U 21025J 25258.57392767 -.00000160 00000-0 -47077-3 0 9992
2 48050 87.9036 14.7317 0001826 92.1378 267.9961 13.13977736217548
Epoch: 15. Sept. 2025 • Age: 16 hours

Aktueller Status

Höhe 1212.5 km
Geschwindigkeit 7.25 km/s
Subsatellitenpunkt -8.72°S, 73.85°W
Startdatum 25. März 2021
Alter 4.4 years
Typ internet

Technische Details

Klassifizierung Payload
Masse 148.00 kg
Trockenmasse 140.00 kg
Gesamtmasse 148.00 kg
Länge 1.30 m
Durchmesser 1.00 m
Spannweite 5.00 m
Form Trapezoid+2 pan
Hersteller ONEWUS
Bus-Typ ARROW
Phasenstatus In Orbit
Besitzer/Staat ONEWEBN/UK

Große Konstellationen

Loading constellations...